Tracking 29967 objects as of 5-Dec-2024
HD Live streaming from Space Station
objects crossing your sky now

CZ-3C DEB (VEB)

Track CZ-3C DEB (VEB) now!
10-day predictions


NORAD ID: 38095
Int'l Code: 2012-008C
Perigee: 268.8 km
Apogee: 26,444.1 km
Inclination: 21.1 °
Period: 459.6 minutes
Semi major axis: 19727 km
RCS: 10.5644 m2 (large)
Launch date: February 24, 2012
Source: People's Republic of China (PRC)
Launch site: Xichang Space Center, China (XSC)

Note: This is SATELLITE DEBRIS
Your satellite tracking list
Your tracking list is empty




NASA's NSSDC Master Catalog

Two Line Element Set (TLE):
1 38095U 12008C   24338.93663455  .00006763  00000-0  14429-2 0  9991
2 38095  21.0573 337.1055 6634250 200.4761 110.0812  3.13326137122024
Source of the keplerian elements: AFSPC